Location: *
(57.8420°S, 159.8600°W)
Time: 13:02:26
(UTC+00:00)

Cosmos-2242 - Pass Details

Date: 18 May 2021
Orbit: 591 x 616 km, 82.5° (Epoch: 22 June)

Event Time Altitude Azimuth Distance (km) Brightness Sun altitude
Rises 03:28:09 0° 196° (SSW) 2,931 6.4 -7.9°
Reaches altitude 10° 03:30:28 10° 202° (SSW) 2,015 5.7 -8.2°
Maximum altitude 03:34:43 44° 274° (W) 861 4.4 -8.7°
Drops below altitude 10° 03:38:53 10° 345° (NNW) 1,976 6.2 -9.2°
Sets 03:41:09 0° 351° (N) 2,868 6.9 -9.5°
